Weather History for Lone Rock, WI

Change the Weather History Date:

Wednesday, September 17, 2014

  Actual Average Record
Temperature  
Mean Temperature 58 °F -  
Max Temperature 73 °F 70 °F 84 °F (2007)
Min Temperature 43 °F 48 °F 37 °F (2011)
Degree Days  
Heating Degree Days 7    
Growing Degree Days 8 (Base 50)    
Moisture  
Dew Point 43 °F    
Average Humidity 78    
Maximum Humidity 86    
Minimum Humidity 42    
Precipitation  
Precipitation 0.00 in - - ()
Sea Level Pressure  
Sea Level Pressure 30.03 in    
Wind  
Wind Speed 1 mph (ESE)    
Max Wind Speed 8 mph    
Max Gust Speed -    
Visibility 4 miles    
Events Fog    
Averages and records for this station are not official NWS values.
T = Trace of Precipitation, MM = Missing Value Source: NWS Daily Summary

Daily Weather History Graph

Daily Weather History Graph

Search for Another Location

Airport:

Trip Planner

Search our weather history database for the weather conditions in past years. The results will help you decide how hot, cold, wet, or windy it might be!

Date:

Astronomy

Sep. 17, 2014 Rise Set
Actual Time 6:42 AM CDT 7:07 PM CDT
Civil Twilight 6:13 AM CDT 7:35 PM CDT
Nautical Twilight 5:40 AM CDT 8:09 PM CDT
Astronomical Twilight 5:05 AM CDT 8:43 PM CDT
Moon 12:35 AM CDT (9/17) 3:23 PM CDT (9/17)
Length of Visible Light 13h 21m
Length of Day
12h 24m
Waning Crescent, 34% of the Moon is Illuminated
Sep 17
Waning Crescent
Sep 24
New
Oct 1
First Quarter
Oct 8
Full
Oct 15
Last Quarter

Hourly Weather History & Observations

Time (CDT) Temp. Windchill Dew Point Humidity Pressure Visibility Wind Dir Wind Speed Gust Speed Precip Events Conditions
12:09 AM 46.9 °F - 41.0 °F 80% 30.07 in 1.8 mi Calm Calm - N/A   Haze
12:12 AM 46.0 °F - 41.0 °F 83% 30.07 in 0.8 mi Calm Calm - N/A   Haze
12:24 AM 46.9 °F - 42.1 °F 83% 30.07 in 0.2 mi Calm Calm - N/A   Haze
12:30 AM 46.9 °F - 42.1 °F 83% 30.07 in 1.0 mi Calm Calm - N/A   Haze
12:40 AM 45.0 °F - 41.0 °F 86% 30.07 in 0.2 mi Calm Calm - N/A Fog Fog
12:44 AM 45.0 °F - 41.0 °F 86% 30.07 in 0.5 mi Calm Calm - N/A Fog Fog
12:56 AM 46.0 °F - 41.0 °F 83% 30.06 in 0.5 mi Calm Calm - N/A   Haze
1:19 AM 44.1 °F 42.5 °F 39.0 °F 82% 30.07 in 0.8 mi East 3.5 mph - N/A   Haze
1:26 AM 44.1 °F 42.5 °F 39.0 °F 82% 30.07 in 1.8 mi East 3.5 mph - N/A   Haze
1:40 AM 44.1 °F - 39.0 °F 82% 30.06 in 3.0 mi Calm Calm - N/A   Haze
1:44 AM 44.1 °F - 39.0 °F 82% 30.06 in 1.8 mi Calm Calm - N/A   Haze
1:56 AM 44.1 °F - 39.9 °F 85% 30.05 in 0.5 mi Calm Calm - N/A Fog Fog
1:58 AM 44.1 °F - 39.0 °F 82% 30.06 in 0.2 mi Calm Calm - N/A   Haze
2:34 AM 46.0 °F - 41.0 °F 83% 30.05 in 0.2 mi Calm Calm - N/A   Haze
2:56 AM 45.0 °F - 41.0 °F 86% 30.04 in 0.2 mi Calm Calm - N/A Fog Fog
3:29 AM 45.0 °F 43.5 °F 39.9 °F 82% 30.04 in 0.5 mi ESE 3.5 mph - N/A   Haze
3:37 AM 45.0 °F - 41.0 °F 86% 30.04 in 0.2 mi Calm Calm - N/A Fog Fog
3:54 AM 44.6 °F - 39.2 °F 81% 30.04 in 0.8 mi Calm Calm - N/A   Haze
3:56 AM 45.0 °F - 39.9 °F 82% 30.03 in 0.5 mi Calm Calm - N/A   Haze
4:38 AM 45.0 °F - 39.9 °F 82% 30.04 in 0.5 mi Calm Calm - N/A   Haze
4:47 AM 45.0 °F - 39.9 °F 82% 30.04 in 0.2 mi Calm Calm - N/A   Haze
4:56 AM 45.0 °F - 39.9 °F 82% 30.03 in 0.2 mi Calm Calm - N/A   Haze
5:56 AM 44.1 °F - 39.9 °F 85% 30.03 in 0.2 mi Calm Calm - N/A Fog Fog
6:39 AM 43.0 °F - 39.0 °F 86% 30.03 in 0.5 mi Calm Calm - N/A Fog Fog
6:49 AM 43.0 °F - 39.0 °F 86% 30.03 in 0.2 mi Calm Calm - N/A Fog Fog
6:56 AM 43.0 °F - 39.0 °F 86% 30.03 in 0.2 mi Calm Calm - N/A Fog Fog
7:18 AM 45.0 °F - 39.9 °F 82% 30.04 in 0.8 mi Calm Calm - N/A   Haze
7:35 AM 45.0 °F - 41.0 °F 86% 30.04 in 1.5 mi Calm Calm - N/A   Overcast
7:38 AM 45.0 °F - 41.0 °F 86% 30.04 in 2.0 mi Calm Calm - N/A   Overcast
7:47 AM 46.0 °F - 41.0 °F 83% 30.04 in 7.0 mi Calm Calm - N/A   Overcast
7:56 AM 46.0 °F - 42.1 °F 86% 30.03 in 7.0 mi Calm Calm - N/A   Overcast
8:21 AM 48.0 °F - 44.1 °F 86% 30.04 in 10.0 mi Calm Calm - N/A   Overcast
8:32 AM 48.9 °F - 44.1 °F 83% 30.03 in 10.0 mi Calm Calm - N/A   Overcast
8:56 AM 50.0 °F - 45.0 °F 83% 30.02 in 10.0 mi Variable 3.5 mph - N/A   Overcast
9:06 AM 51.1 °F - 46.0 °F 83% 30.03 in 10.0 mi East 3.5 mph - N/A   Overcast
9:56 AM 55.9 °F - 48.0 °F 75% 30.02 in 10.0 mi Calm Calm - N/A   Overcast
10:56 AM 62.1 °F - 50.0 °F 65% 30.01 in 10.0 mi Calm Calm - N/A   Overcast
1:56 PM 72.0 °F - 48.9 °F 44% 29.97 in 10.0 mi SSW 4.6 mph - N/A   Partly Cloudy
2:56 PM 72.0 °F - 48.0 °F 43% 29.96 in 10.0 mi WSW 8.1 mph - N/A   Scattered Clouds
3:56 PM 73.0 °F - 48.9 °F 42% 29.95 in 10.0 mi Calm Calm - N/A   Clear
4:56 PM 73.0 °F - 48.9 °F 42% 29.95 in 10.0 mi WSW 4.6 mph - N/A   Clear
5:56 PM 72.0 °F - 48.9 °F 44% 29.96 in 10.0 mi Calm Calm - N/A   Clear
6:56 PM 66.0 °F - 53.1 °F 63% 29.97 in 10.0 mi Calm Calm - N/A   Clear
7:56 PM 59.0 °F - 52.0 °F 78% 29.98 in 10.0 mi South 3.5 mph - N/A   Clear
8:56 PM 55.9 °F - 48.9 °F 77% 30.00 in 10.0 mi Calm Calm - N/A   Clear
9:56 PM 54.0 °F - 46.9 °F 77% 30.01 in 10.0 mi Calm Calm - N/A   Clear
10:56 PM 50.0 °F - 44.1 °F 80% 30.03 in 0.8 mi East 4.6 mph - N/A   Haze
10:59 PM 51.1 °F - 45.0 °F 80% 30.04 in 1.5 mi ENE 4.6 mph - N/A   Haze
11:01 PM 51.1 °F - 46.0 °F 83% 30.04 in 4.0 mi ENE 3.5 mph - N/A   Haze
11:56 PM 53.1 °F - 48.0 °F 83% 30.03 in 7.0 mi Calm Calm - N/A   Clear